Regional Weather Roundup
Issued by NWS

Home | Current Version | Previous Version | Text Only | Print | Product List | Glossary Off
Versions: 1 2 3 4 5 6 7 8 9 10 11 12 13 14 15 16 17 18 19 20 21 22 23 24 25 26 27 28 29 30 31 32 33 34 35 36 37 38 39 40 41 42 43 44 45 46 47 48 49 50

000
ASUS43 KIND 211809
RWRIN

WEATHER ROUNDUP FOR INDIANA
NATIONAL WEATHER SERVICE INDIANAPOLIS IN
100 PM EST SUN DEC 21 2014

NOTE: "FAIR" INDICATES FEW OR NO CLOUDS BELOW 12,000 FEET WITH NO
SIGNIFICANT WEATHER AND/OR OBSTRUCTIONS TO VISIBILITY.

* - STATION DOES NOT REPORT WEATHER SUCH AS PRECIPITATION OR FOG.

+ - STATION NOT QUALITY CONTROLLED BY THE NATIONAL WEATHER SERVICE.
    USE DATA WITH CAUTION...ESPECIALLY DEWPOINT AND RELATIVE
    HUMIDITY OBSERVATIONS.

INZ001>003-010>013-019-020-211900-
NORTHWEST INDIANA

CITY           SKY/WX    TMP DP  RH WIND       PRES   REMARKS
GARY /AIRPORT/ CLOUDY    36  25  64 S12       30.19F
KNOX *+        CLOUDY    35  24  63 S13       30.20F WCI  27
LA PORTE +     CLOUDY    35  29  79 S8        30.19F WCI  28
6HR MIN TEMP:  32; 6HR MAX TEMP:  35;

MICHIGAN CITY+ CLOUDY    32  23  69 S7        30.19F WCI  26
MONTICELLO +   MOSUNNY   36  28  73 S7        30.20F
RENSSELAER +   CLOUDY    34  32  93 S10       30.20F WCI  26
VALPARAISO     CLOUDY    32  26  78 S8        30.19F WCI  25
6HR MIN TEMP:  30; 6HR MAX TEMP:  32;


$$

LMZ046-743>745-211900-
SOUTHERN LAKE MICHIGAN

STATION/POSITION TIME  TEMP WIND        PRES
                       AIR  DIR/SP/G
                 (UTC) (F)  (DEG/KT/KT) (MB)

$$

INZ004-005-014>016-021>024-211900-
NORTH CENTRAL INDIANA

CITY           SKY/WX    TMP DP  RH WIND       PRES   REMARKS
GOSHEN         CLOUDY    35  26  69 S10       30.20F WCI  27
6HR MIN TEMP:  31; 6HR MAX TEMP:  35;

LOGANSPORT +   MOSUNNY   36  28  75 SE10      30.21F
PERU/GRISSOM   SUNNY     35  31  86 S13       30.21F WCI  26
6HR MIN TEMP:  29; 6HR MAX TEMP:  35;

ROCHESTER +    MOSUNNY   37  30  75 S7        30.21F
SOUTH BEND     CLOUDY    35  27  72 S8        30.20F WCI  29
6HR MIN TEMP:  32; 6HR MAX TEMP:  36;

WARSAW +       CLOUDY    34  27  75 S8        30.21F WCI  27

$$

INZ006>009-017-018-025>027-211900-
NORTHEAST INDIANA

CITY           SKY/WX    TMP DP  RH WIND       PRES   REMARKS
ANGOLA *+      CLOUDY    30  25  80 S7        30.21F WCI  23
AUBURN +       CLOUDY    34  25  69 S3        30.23F
FORT WAYNE     CLOUDY    34  25  69 S7        30.24F HAZE    WCI  28
6HR MIN TEMP:  29; 6HR MAX TEMP:  34;

HUNTINGTON +   MOSUNNY   34  26  74 S7        30.22F WCI  27
6HR MIN TEMP:  28; 6HR MAX TEMP:  34;


$$

INZ028-029-035-036-043>045-051>053-211900-
WEST CENTRAL INDIANA

CITY           SKY/WX    TMP DP  RH WIND       PRES   REMARKS
GREENCASTLE +  MOSUNNY   34  27  75 SE7       30.21F WCI  28
LAFAYETTE      MOSUNNY   36  28  73 S9        30.20F
6HR MIN TEMP:  25; 6HR MAX TEMP:  36;

TERRE HAUTE    MOSUNNY   37  29  72 SE7       30.21F
6HR MIN TEMP:  24; 6HR MAX TEMP:  37;


$$

INZ030>032-037>040-046>048-054>057-064-065-211900-
CENTRAL INDIANA

CITY           SKY/WX    TMP DP  RH WIND       PRES   REMARKS
CP ATTERBURY + SUNNY     36  28  75 MISG      30.22F
COLUMBUS       MOSUNNY   36  28  75 SE6       30.22F
FRANKFORT +    MOSUNNY   36  30  79 SE8       30.22F
GREENWOOD *+   MOSUNNY   34  25  69 SE7       30.22  WCI  28
INDIANAPOLIS   PTSUNNY   34  26  72 E7        30.20F WCI  28
6HR MIN TEMP:  20; 6HR MAX TEMP:  34;

-EAGLE CREEK   SUNNY     34  26  72 SE8       30.21F WCI  27
6HR MIN TEMP:  19; 6HR MAX TEMP:  34;

KOKOMO *+      MOSUNNY   34  27  75 S12       30.22F WCI  25
MARION +       MOSUNNY   33  28  81 SE8       30.23F WCI  27
MT COMFORT *+  MOSUNNY   34  21  60 SE8       30.22F WCI  27
SHELBYVILLE    MOSUNNY   35  27  72 SE7       30.22F WCI  29
6HR MIN TEMP:  22; 6HR MAX TEMP:  35;

ZIONSVILLE +   SUNNY     35  25  68 S8        30.21F WCI  28
6HR MIN TEMP:  20; 6HR MAX TEMP:  35;


$$

INZ033-034-041-042-049-050-058-059-211900-
EAST CENTRAL INDIANA

CITY           SKY/WX    TMP DP  RH WIND       PRES   REMARKS
MUNCIE         SUNNY     34  26  72 SE6       30.22F WCI  29
6HR MIN TEMP:  23; 6HR MAX TEMP:  35;


$$

INZ060-061-067>069-081>083-085>088-211900-
SOUTHWEST INDIANA

CITY           SKY/WX    TMP DP  RH WIND       PRES   REMARKS
EVANSVILLE     SUNNY     40  30  67 VRB3      30.22F
6HR MIN TEMP:  26; 6HR MAX TEMP:  40;

HUNTINGBURG *+ SUNNY     39  28  65 SE7       30.22F
6HR MIN TEMP:  21; 6HR MAX TEMP:  39;

WASHINGTON +   SUNNY     37  27  67 SE5       30.22F
6HR MIN TEMP:  24; 6HR MAX TEMP:  37;


$$

INZ062-063-066-070>080-084-089>092-211900-
SOUTH CENTRAL AND SOUTHEAST INDIANA

CITY           SKY/WX    TMP DP  RH WIND       PRES   REMARKS
BLOOMINGTON    SUNNY     36  29  75 E6        30.20F
6HR MIN TEMP:  19; 6HR MAX TEMP:  36;


$$



USA.gov is the U.S. government's official web portal to all federal, state and local government web resources and services.